San Luis Reservoir Weather Center

Moon Phase Calendar



San Luis Reservoir Water Level
Online Cameras

 


      

Current Conditions in Santa Nella Village
6/24/2021 8:37:19 PM

65°F
Feels Like 64
Clear
Humidity
68%
Pressure
29.97"
Wind
9.1 mph (WSW)
Dew Point
54°F
UV Index
0/10 (Low)
Visibility
6 mi

Hourly Forecast

Date & Time Thu, Jun 24
8:00 PM
Thu, Jun 24
9:00 PM
Thu, Jun 24
10:00 PM
Thu, Jun 24
11:00 PM
Fri, Jun 25
12:00 AM
Fri, Jun 25
1:00 AM
Fri, Jun 25
2:00 AM
Fri, Jun 25
3:00 AM
Fri, Jun 25
4:00 AM
Fri, Jun 25
5:00 AM
Fri, Jun 25
6:00 AM
Fri, Jun 25
7:00 AM
Fri, Jun 25
8:00 AM
Fri, Jun 25
9:00 AM
Fri, Jun 25
10:00 AM
Fri, Jun 25
11:00 AM
Fri, Jun 25
12:00 PM
Fri, Jun 25
1:00 PM
Fri, Jun 25
2:00 PM
Fri, Jun 25
3:00 PM
Fri, Jun 25
4:00 PM
Fri, Jun 25
5:00 PM
Fri, Jun 25
6:00 PM
Fri, Jun 25
7:00 PM
Fri, Jun 25
8:00 PM
Fri, Jun 25
9:00 PM
Fri, Jun 25
10:00 PM
Fri, Jun 25
11:00 PM
Sat, Jun 26
12:00 AM
Sat, Jun 26
1:00 AM
Sat, Jun 26
2:00 AM
Sat, Jun 26
3:00 AM
Sat, Jun 26
4:00 AM
Sat, Jun 26
5:00 AM
Sat, Jun 26
6:00 AM
Sat, Jun 26
7:00 AM
Sat, Jun 26
8:00 AM
Sat, Jun 26
9:00 AM
Sat, Jun 26
10:00 AM
Sat, Jun 26
11:00 AM
Sat, Jun 26
12:00 PM
Sat, Jun 26
1:00 PM
Sat, Jun 26
2:00 PM
Sat, Jun 26
3:00 PM
Sat, Jun 26
4:00 PM
Sat, Jun 26
5:00 PM
Sat, Jun 26
6:00 PM
Sat, Jun 26
7:00 PM
Condition
Clear

Clear

Clear

Clear

Clear

Clear

Clear

Clear

Clear

Clear

Clouds

Clouds

Clouds

Clouds

Clouds

Clouds

Clear

Clear

Clear

Clear

Clear

Clear

Clear

Clear

Clear

Clear

Clear

Clear

Clear

Clear

Clear

Clear

Clear

Clear

Clear

Clear

Clear

Clear

Clear

Clear

Clear

Clear

Clear

Clear

Clear

Clear

Clear

Clear
Temperature 65°F65°F64°F62°F60°F58°F56°F56°F56°F55°F55°F59°F65°F72°F79°F84°F89°F92°F94°F95°F94°F91°F85°F80°F74°F67°F65°F63°F63°F62°F62°F62°F61°F62°F63°F68°F75°F82°F87°F93°F97°F100°F103°F104°F102°F100°F95°F91°F
Feels Like 65°F64°F63°F61°F60°F57°F55°F55°F55°F55°F55°F58°F64°F71°F78°F82°F86°F88°F90°F91°F91°F88°F83°F80°F73°F67°F64°F63°F62°F62°F61°F61°F60°F61°F62°F67°F74°F80°F84°F89°F93°F97°F99°F100°F100°F97°F93°F89°F
Cloudiness 0%0%0%0%0%0%2%4%6%8%27%28%27%20%16%13%0%0%0%0%0%0%0%0%0%0%0%0%0%0%0%0%0%0%0%0%0%0%0%0%0%0%0%0%0%0%0%0%
Visibility 6 mi6 mi6 mi6 mi6 mi6 mi6 mi6 mi6 mi6 mi6 mi6 mi6 mi6 mi6 mi6 mi6 mi6 mi6 mi6 mi6 mi6 mi6 mi6 mi6 mi6 mi6 mi6 mi6 mi6 mi6 mi6 mi6 mi6 mi6 mi6 mi6 mi6 mi6 mi6 mi6 mi6 mi6 mi6 mi6 mi6 mi6 mi6 mi
Precipitation 0%0%0%0%0%0%0%0%0%0%0%0%0%0%0%0%0%0%0%0%0%0%0%0%0%0%0%0%0%0%0%0%0%0%0%0%0%0%0%0%0%0%0%0%0%0%0%0%
Humidity 65%68%70%73%76%80%85%86%86%87%87%78%63%48%38%31%25%22%18%17%19%24%31%39%50%63%68%70%70%68%66%67%67%64%60%49%38%31%25%21%19%17%16%16%18%20%24%29%
Dew Point 53°F54°F54°F53°F53°F52°F50°F50°F50°F51°F51°F51°F51°F50°F50°F49°F48°F47°F44°F43°F43°F46°F49°F51°F52°F52°F52°F52°F51°F50°F49°F49°F49°F48°F48°F48°F47°F47°F47°F47°F47°F47°F47°F48°F49°F50°F51°F52°F
Pressure 29.97"29.97"29.97"29.97"29.97"30"29.97"29.97"29.97"29.97"29.97"30"29.97"29.97"29.97"29.94"29.91"29.91"29.85"29.85"29.83"29.85"29.85"29.85"29.88"29.91"29.91"29.91"29.91"29.91"29.91"29.91"29.91"29.91"29.91"29.91"29.91"29.88"29.88"29.85"29.83"29.8"29.77"29.74"29.74"29.74"29.71"29.74"
Wind Speed 9.8 mph9.1 mph8.2 mph7.8 mph7 mph6.2 mph6.8 mph6.9 mph6.4 mph6 mph5.8 mph5.2 mph3.6 mph2.5 mph1.3 mph1.2 mph1.5 mph1.7 mph2.3 mph4.3 mph6.4 mph10 mph12.2 mph10.9 mph9.2 mph8.7 mph8.6 mph8 mph7.4 mph6.9 mph6.6 mph6.2 mph5.6 mph5.4 mph4.5 mph3.1 mph2.5 mph2.2 mph2.4 mph2.4 mph2.5 mph2.6 mph3.2 mph5.9 mph8.6 mph11 mph11.1 mph10.1 mph
Wind
Direction
249°
WSW
246°
WSW
244°
WSW
242°
WSW
246°
WSW
255°
WSW
248°
WSW
245°
WSW
249°
WSW
248°
WSW
251°
WSW
251°
WSW
258°
WSW
280°
W
316°
NW
345°
NNW
347°
NNW
329°
NNW
287°
WNW
273°
W
265°
W
259°
W
254°
WSW
251°
WSW
244°
WSW
241°
WSW
242°
WSW
245°
WSW
245°
WSW
242°
WSW
249°
WSW
253°
WSW
257°
WSW
254°
WSW
253°
WSW
275°
W
305°
NW
346°
NNW

N

N
351°
N
328°
NNW
295°
WNW
272°
W
266°
W
255°
WSW
251°
WSW
250°
WSW

Daily Forecast

Date High Low Precip. Humidity
Today
Jun 24

Clear
86 °F
55 °F
0%
32%
Friday
Jun 25

Clear
95 °F
55 °F
0%
22%
Saturday
Jun 26

Clear
103 °F
61 °F
0%
16%
Sunday
Jun 27

Clear
106 °F
66 °F
0%
13%
Monday
Jun 28

Clear
104 °F
63 °F
0%
12%
Tuesday
Jun 29

Clouds
110 °F
68 °F
0%
9%
Wednesday
Jun 30

Clouds
106 °F
64 °F
0%
13%
Thursday
Jul 1

Clear
97 °F
60 °F
0%
18%
Friday
Jul 2

Clouds
95 °F
58 °F
0%
22%
Saturday
Jul 3

Clear
98 °F
59 °F
0%
22%
Sunday
Jul 4

Clear
105 °F
62 °F
0%
13%
Monday
Jul 5

Clear
104 °F
62 °F
0%
15%
Tuesday
Jul 6

Clear
99 °F
59 °F
0%
14%
Wednesday
Jul 7

Clear
102 °F
60 °F
0%
16%
Thursday
Jul 8

Clear
109 °F
66 °F
0%
10%
Friday
Jul 9

Clear
113 °F
74 °F
0%
9%

Temperature 8-14 Day Outlook



Precipitation 8-14 Day Outlook




Quick Links
San Luis Reservoir News
San Luis Reservoir Photos
San Luis Reservoir Videos




About Us
Contact Us
Site Map
Search Site
Advertise With Us
   
SanLuis.LakesOnline.com
THE SAN LUIS RESERVOIR WEBSITE

Copyright 2021, Lakes Online
Privacy    |    Legal